[[{"header":{"parameterUnit":"m.s-1","parameterCategory":1,"la1":30.2991,"la2":30.254,"lo1":-89.0895,"lo2":-89.0444,"dy":0.0017,"dx":0.0017,"nx":28,"ny":28,"refTime":"2024-07-14T09:00:00:Z","depth":0,"parameterNumber":2,"parameterNumberName":"U-component_of_WINDS"},"data":[0,0,0,0,0,0,0,0,0,0,0,0,0,0,0,0,0,0,0,0,0,0,0,0,0,0,0,0,0,0,0,0,0,0,0,0,0,0,0,0,0,0,0,0,0,0,0,0,0,0,0,0,0,0,0,0,0,0,3.3397,3.3398,0,3.3488,3.3489,3.349,3.349,3.3489,3.3488,3.3487,3.3575,3.3579,3.3582,0,0,0,0,0,0,0,0,0,0,0,0,0,3.3223,3.3227,3.3397,3.3398,3.34,3.3488,3.3489,3.349,3.349,3.3489,3.3488,3.3486,3.3574,3.3578,3.3583,0,0,0,0,0,0,0,0,0,0,0,0,0,3.3305,3.3228,3.3397,3.341,3.3413,3.3488,3.3489,3.3491,3.3491,3.3489,3.3487,3.3486,3.3573,3.3578,3.3583,3.365,0,0,3.3599,3.3601,0,0,0,0,0,0,0,0,3.33,3.3311,3.3407,3.341,3.3412,3.3476,3.346,3.3544,3.3491,3.3461,3.3487,3.3485,3.3544,3.3551,3.3572,3.3654,3.3657,3.3599,3.3602,3.3605,3.3606,0,0,0,0,0,0,0,3.3295,3.3307,3.3433,3.3409,3.3412,3.3412,3.3421,3.3476,3.3511,3.3463,3.3464,3.3475,3.3544,3.3567,3.3574,3.3659,3.3599,3.3604,3.3607,3.3609,3.3804,3.3806,0,0,0,0,0,0,3.3287,3.3303,3.343,3.3436,3.3351,3.3416,3.3427,3.3457,3.351,3.3517,3.3476,3.3474,3.3559,3.3568,3.3577,3.366,3.3605,3.3609,3.3612,3.3802,3.3804,3.3807,0,0,0,0,0,0,3.3283,3.3298,3.3426,3.3369,3.3386,3.3421,3.3455,3.346,3.3482,3.352,3.3526,3.3492,3.3558,3.357,3.3633,3.3663,3.3612,3.3616,3.3799,3.3803,3.3805,3.3826,0,0,0,0,0,0,3.3278,3.3297,3.3322,3.337,3.3389,3.3481,3.3457,3.3463,3.3492,3.349,3.3537,3.3543,3.3557,3.3625,3.3638,3.3669,3.362,3.3797,3.3801,3.3804,3.3823,3.383,3.3836,0,0,0,0,0,3.3272,3.3323,3.3323,3.3339,3.3422,3.3483,3.3493,3.351,3.3494,3.352,3.3545,3.3541,3.3658,3.3631,3.3646,3.3679,3.3795,3.38,3.3804,3.382,3.3828,3.3835,0,0,0,0,0,0,3.3275,3.3329,3.333,3.3399,3.3437,3.3483,3.3516,3.3518,3.356,3.3557,3.3575,3.3585,3.3649,3.367,3.364,3.3749,3.3724,3.3732,3.3732,3.374,3.3746,3.3739,3.3625,0,0,0,0,0,3.3284,3.333,3.3374,3.343,3.345,3.348,3.3507,3.3517,3.3556,3.3572,3.3601,3.3638,3.3684,3.3713,3.3757,3.3827,3.3838,3.3858,3.3864,3.3869,3.3875,3.3916,3.3926,3.3822,3.3822,3.3822,0,0,3.3302,3.3338,3.3365,3.3432,3.3462,3.351,3.3493,3.3542,3.3578,3.3579,3.3641,3.3664,3.3707,3.3775,3.3806,3.3795,3.3907,3.3875,3.3878,3.3882,3.3922,3.3932,3.3941,3.3825,3.3825,3.3824,0,0,3.336,3.3391,3.3442,3.3474,3.3522,3.3542,3.3555,3.3602,3.3618,3.3682,3.3684,3.3726,3.3804,3.3836,3.3862,3.3937,3.3935,3.395,3.3982,3.4023,3.4031,3.4038,3.4066,3.4076,3.3957,3.3957,3.3957,0,3.3376,3.3448,3.3468,3.3519,3.355,3.3556,3.3609,3.3638,3.3697,3.3717,3.3705,3.3805,3.3834,3.391,3.3929,3.395,3.3965,3.3944,3.4028,3.4036,3.4043,3.407,3.408,3.3958,3.3958,3.3958,3.3958,0,3.3466,3.3517,3.3552,3.3612,3.3646,3.3698,3.3726,3.3758,3.3767,3.3789,3.3855,3.3891,3.3944,3.3963,3.397,3.4041,3.4033,3.4024,3.4,3.4054,3.408,3.409,3.396,3.396,3.3959,3.3959,0,0,3.3525,3.3599,3.3612,3.364,3.3695,3.3734,3.3787,3.3841,3.3869,3.391,3.3956,3.4023,3.4017,3.4047,3.4058,3.4093,3.4153,3.4081,3.4082,3.4093,3.4236,3.4242,3.4253,3.4153,3.4155,3.4157,3.4232,0,3.3589,3.3685,3.3706,3.3788,3.3836,3.3845,3.3891,3.393,3.3953,3.3997,3.4022,3.407,3.4057,3.4076,3.4111,3.4138,3.4182,3.4133,3.4195,3.4197,3.4184,3.4267,3.4273,3.4342,3.4242,3.4244,3.4245,0,3.3676,3.3723,3.381,3.3862,3.3883,3.3924,3.3977,3.4019,3.4064,3.4079,3.4115,3.4124,3.418,3.4155,3.4233,3.42,3.4227,3.4245,3.4248,3.4253,3.4224,3.4275,3.4364,3.4375,3.4261,3.426,3.4259,0,3.3711,3.3796,3.386,3.3884,3.3946,3.3976,3.4003,3.4046,3.4079,3.4125,3.4146,3.4197,3.4225,3.4265,3.4289,3.4268,3.4366,3.4342,3.438,3.4379,3.4398,3.4397,3.4493,3.4417,3.4416,3.4416,3.4416,0,3.3781,3.3834,3.3878,3.3917,3.3978,3.4003,3.4062,3.4089,3.4129,3.4174,3.4184,3.4226,3.4254,3.4301,3.4319,3.4382,3.4394,3.4408,3.4412,3.4407,3.4405,3.4424,3.442,3.4419,3.4418,3.4418,3.4417,0,3.383,3.3861,3.3932,3.3987,3.4002,3.4044,3.4091,3.413,3.4155,3.4212,3.4226,3.4265,3.432,3.4348,3.4416,3.4429,3.45,3.4501,3.4485,3.4487,3.4524,3.452,3.4635,3.4652,3.4564,3.4565,3.4566,0,3.3871,3.3913,3.3974,3.4006,3.4035,3.4085,3.4119,3.4147,3.4181,3.4239,3.4271,3.4328,3.4374,3.4462,3.4496,3.4549,3.4551,3.4589,3.4559,3.4554,3.4553,3.455,3.4555,3.4593,3.4594,3.4594,3.4595,0,3.3943,3.3957,3.4007,3.4063,3.4104,3.4148,3.4192,3.4218,3.4252,3.4291,3.4349,3.4386,3.4457,3.4513,3.457,3.4597,3.4602,3.4605,3.4616,3.4611,3.46,3.4607,3.45,3.4601,3.4601,3.46,3.46,3.46,3.399,3.4029,3.4079,3.4134,3.4171,3.4213,3.4253,3.4285,3.4334,3.4396,3.4409,3.4471,3.4518,3.4595,3.4625,3.4673,3.4665,3.4682,3.4686,3.4689,3.4692,3.4594,3.4684,3.4683,3.4683,3.4683,3.4683,0,3.4062,3.4096,3.4147,3.421,3.4255,3.4258,3.4308,3.4344,3.4399,3.4444,3.4491,3.4559,3.4614,3.4654,3.4711,3.4743,3.4747,3.4757,3.4754,3.4761,3.4695,3.468,3.4753,3.4753,3.4753,3.4753,3.4753,3.4753,3.4105,3.4172,3.4193,3.4279,3.4312,3.4374,3.4403,3.4442,3.4478,3.4554,3.4601,3.4628,3.4671,3.4732,3.4784,3.4794,3.4814,3.4825,3.4835,3.4773,3.4765,3.4758,3.4744,3.4829,3.4829,3.4897,3.4897,3.4898]},{"header":{"parameterUnit":"m.s-1","parameterCategory":1,"la1":30.2991,"la2":30.254,"lo1":-89.0895,"lo2":-89.0444,"dy":0.0017,"dx":0.0017,"nx":28,"ny":28,"refTime":"2024-07-14T09:00:00:Z","depth":0,"parameterNumber":3,"parameterNumberName":"V-component_of_WINDS"},"data":[0,0,0,0,0,0,0,0,0,0,0,0,0,0,0,0,0,0,0,0,0,0,0,0,0,0,0,0,0,0,0,0,0,0,0,0,0,0,0,0,0,0,0,0,0,0,0,0,0,0,0,0,0,0,0,0,0,0,0.3973,0.3975,0,0.4151,0.4153,0.4155,0.4262,0.4262,0.4263,0.4263,0.4449,0.4454,0.4458,0,0,0,0,0,0,0,0,0,0,0,0,0,0.3729,0.3733,0.3973,0.3975,0.3978,0.415,0.4153,0.4155,0.4262,0.4262,0.4263,0.4264,0.4448,0.4453,0.4458,0,0,0,0,0,0,0,0,0,0,0,0,0,0.3863,0.3734,0.3973,0.4052,0.406,0.415,0.4153,0.4156,0.4262,0.4262,0.4263,0.4264,0.4446,0.4452,0.4459,0.4486,0,0,0.448,0.4483,0,0,0,0,0,0,0,0,0.3856,0.3872,0.4038,0.4046,0.4056,0.4185,0.4135,0.4267,0.4261,0.4185,0.4263,0.4264,0.4361,0.4375,0.4406,0.4494,0.4502,0.448,0.4484,0.4487,0.4489,0,0,0,0,0,0,0,0.3846,0.3865,0.4044,0.404,0.4051,0.4079,0.4099,0.416,0.4267,0.4192,0.42,0.4219,0.4366,0.44,0.4412,0.4505,0.448,0.4486,0.449,0.4493,0.462,0.462,0,0,0,0,0,0,0.3824,0.3857,0.4038,0.4049,0.3956,0.4082,0.4105,0.4143,0.4267,0.4286,0.4219,0.4224,0.4388,0.4404,0.4419,0.4456,0.4487,0.4494,0.4497,0.4621,0.462,0.462,0,0,0,0,0,0,0.3818,0.3839,0.4031,0.3955,0.3982,0.4086,0.4128,0.4146,0.418,0.4287,0.4306,0.4233,0.4389,0.4409,0.4467,0.4464,0.4497,0.4503,0.4622,0.4621,0.462,0.4531,0,0,0,0,0,0,0.3811,0.3836,0.3847,0.3955,0.3985,0.4076,0.4128,0.4149,0.419,0.4199,0.4305,0.4324,0.4391,0.4456,0.4474,0.4474,0.4508,0.4623,0.4621,0.462,0.4535,0.4527,0.4521,0,0,0,0,0,0.3802,0.3817,0.3847,0.3869,0.4001,0.4075,0.4093,0.4169,0.419,0.4202,0.427,0.4321,0.4461,0.4462,0.4482,0.4484,0.4623,0.4622,0.462,0.4538,0.4529,0.4521,0,0,0,0,0,0,0.371,0.3833,0.3868,0.3918,0.3985,0.4093,0.4111,0.4157,0.4221,0.4227,0.4319,0.4342,0.4391,0.4444,0.4442,0.4514,0.4548,0.455,0.4478,0.447,0.4463,0.4449,0.4513,0,0,0,0,0,0.3694,0.3743,0.3849,0.3883,0.3915,0.4006,0.4042,0.4094,0.4168,0.4197,0.427,0.4341,0.4401,0.4438,0.45,0.4542,0.4566,0.4554,0.4546,0.454,0.4541,0.4565,0.456,0.4615,0.4615,0.4615,0,0,0.3665,0.3738,0.3764,0.3866,0.3925,0.3973,0.403,0.408,0.4117,0.4206,0.4264,0.4319,0.4404,0.4453,0.4479,0.4499,0.4531,0.4538,0.4532,0.4537,0.4563,0.4558,0.4553,0.4614,0.4614,0.4614,0,0,0.3636,0.3697,0.3731,0.3786,0.3873,0.3933,0.394,0.4041,0.408,0.414,0.4206,0.4252,0.4354,0.4411,0.4453,0.444,0.4489,0.4458,0.4421,0.4443,0.4439,0.4436,0.443,0.4426,0.4459,0.4458,0.4458,0,0.3589,0.3665,0.3743,0.3788,0.383,0.3909,0.3943,0.3995,0.4097,0.4124,0.4144,0.4271,0.4334,0.4397,0.4393,0.4425,0.4436,0.4447,0.4433,0.443,0.4429,0.4424,0.4421,0.4454,0.4455,0.4455,0.4455,0,0.3601,0.3652,0.3669,0.3763,0.3807,0.3847,0.393,0.3966,0.4013,0.4071,0.4129,0.4207,0.4284,0.4302,0.4351,0.4371,0.438,0.4415,0.4451,0.4417,0.4414,0.4413,0.4448,0.4449,0.4451,0.4452,0,0,0.3522,0.3655,0.366,0.3701,0.38,0.3842,0.3884,0.3957,0.3985,0.4052,0.4089,0.4171,0.4203,0.4251,0.4306,0.4325,0.4307,0.4358,0.4361,0.4345,0.4333,0.4305,0.4301,0.434,0.434,0.434,0.4325,0,0.3507,0.3585,0.3654,0.3708,0.3755,0.3828,0.3865,0.393,0.3984,0.4032,0.4093,0.4149,0.4188,0.4216,0.4239,0.4305,0.4306,0.4307,0.4375,0.4377,0.4351,0.43,0.4272,0.4254,0.4324,0.4324,0.4324,0,0.35,0.356,0.3617,0.3708,0.373,0.3762,0.3832,0.3878,0.3952,0.399,0.404,0.4097,0.4144,0.4174,0.424,0.4239,0.4271,0.4307,0.4308,0.4317,0.4348,0.4307,0.4251,0.4247,0.4324,0.4324,0.4324,0,0.3434,0.353,0.3576,0.3609,0.3717,0.3737,0.3783,0.3858,0.3896,0.3958,0.3983,0.405,0.4087,0.4138,0.4211,0.4226,0.4268,0.4305,0.4301,0.4299,0.4307,0.4306,0.4254,0.4328,0.4328,0.4328,0.4328,0,0.341,0.3441,0.3547,0.3575,0.3611,0.3691,0.3725,0.3778,0.3843,0.3882,0.3951,0.3987,0.4081,0.4127,0.4185,0.4229,0.4246,0.4278,0.4293,0.4271,0.4267,0.4294,0.4296,0.4328,0.4328,0.4328,0.4328,0,0.3343,0.3415,0.3469,0.3565,0.3589,0.3612,0.3695,0.3724,0.3781,0.3829,0.3846,0.3935,0.3993,0.407,0.4154,0.4192,0.4229,0.4253,0.4203,0.4212,0.4203,0.4202,0.4166,0.4165,0.424,0.4239,0.4239,0,0.3322,0.3348,0.3444,0.3474,0.3517,0.3566,0.3604,0.3682,0.3719,0.3803,0.3822,0.3885,0.3939,0.4029,0.4102,0.4165,0.419,0.4173,0.42,0.4177,0.4188,0.4185,0.4187,0.4166,0.4165,0.4164,0.4163,0,0.3277,0.3311,0.3362,0.3425,0.3467,0.3521,0.3579,0.36,0.369,0.3728,0.3787,0.3828,0.3911,0.3972,0.4044,0.4093,0.4142,0.4153,0.4156,0.4134,0.4103,0.4118,0.4184,0.4154,0.4155,0.4156,0.4156,0.4157,0.3233,0.3257,0.3328,0.3382,0.3432,0.3483,0.3514,0.3573,0.3623,0.3695,0.3738,0.3795,0.3866,0.3967,0.4012,0.4058,0.4078,0.4081,0.4082,0.4082,0.4074,0.4096,0.4072,0.4072,0.4072,0.4073,0.4073,0,0.319,0.3238,0.3287,0.3362,0.3404,0.3445,0.3509,0.3542,0.359,0.3651,0.3702,0.3768,0.3827,0.3902,0.3966,0.3988,0.4012,0.4002,0.4001,0.401,0.4053,0.4044,0.3981,0.3981,0.3981,0.3981,0.3981,0.3981,0.3173,0.3215,0.3256,0.3324,0.3373,0.3426,0.3459,0.3506,0.3555,0.3624,0.3672,0.372,0.3787,0.3855,0.3911,0.3931,0.3951,0.3934,0.3961,0.4,0.4008,0.4016,0.4008,0.3938,0.3937,0.3915,0.3914,0.3914]}]]